Location: La Chapelle
(48.3135°N, 1.3085°W)
Time: 02:46:04
(UTC+00:00)

Cosmos 1666 - Pass Details

Date: 03 March 2021
Orbit: 497 x 518 km, 82.5° (Epoch: 16 April)

Event Time Altitude Azimuth Distance (km) Brightness Sun altitude
Rises 20:03:46 0° 201° (SSW) 2,574 6.3 -22.4°
Reaches altitude 10° 20:05:55 10° 207° (SSW) 1,697 5.4 -22.7°
Maximum altitude 20:09:32 49° 283° (WNW) 651 3.5 -23.3°
Drops below altitude 10° 20:13:12 10° 360° (N) 1,718 5.5 -23.9°
Sets 20:15:23 0° 5° (N) 2,610 6.4 -24.2°
